Calera, OK

7:34 PM CST on December 05, 2016 (GMT -0600)
Eaker

Weather History for KDUA - November, 2011

Change the Weather History Date:

Monday, November 21, 2011

  Actual Average (KMLC) Record (KMLC)
Temperature  
Mean Temperature 46 °F -  
Max Temperature 50 °F 61 °F 78 °F (1966)
Min Temperature 42 °F 37 °F 21 °F (2000)
Degree Days  
Heating Degree Days 19    
Moisture  
Dew Point 44 °F    
Average Humidity 97    
Maximum Humidity 100    
Minimum Humidity 87    
Precipitation  
Precipitation 0.51 in - - ()
Sea Level Pressure  
Sea Level Pressure 30.12 in    
Wind  
Wind Speed 8 mph (North)    
Max Wind Speed 12 mph    
Max Gust Speed 17 mph    
Visibility 3 miles    
Events Rain , Thunderstorm    
Averages and records for this station are not official NWS values.
T = Trace of Precipitation, MM = Missing Value Source: NWS Daily Summary

Daily Weather History Graph

Daily Weather History Graph

Search for Another Location

Airport or City:

Trip Planner

Search our weather history database for the weather conditions in past years. The results will help you decide how hot, cold, wet, or windy it might be!

Date:

Astronomy

Nov. 21, 2011 Rise Set
Actual Time 7:03 AM CST 5:19 PM CST
Civil Twilight 6:36 AM CST 5:46 PM CST
Nautical Twilight 6:06 AM CST 6:16 PM CST
Astronomical Twilight 5:36 AM CST 6:46 PM CST
Moon 2:52 AM CST (11/21) 2:34 PM CST (11/21)
Length of Visible Light 11h 09m
Length of Day
10h 15m
Waning Crescent, 17% of the Moon is Illuminated
Nov 21
Waning Crescent
Nov 25
New
Dec 2
First Quarter
Dec 10
Full
Dec 17
Last Quarter

Hourly Weather History & Observations

Time (CST) Temp. Windchill Dew Point Humidity Pressure Visibility Wind Dir Wind Speed Gust Speed Precip Events Conditions
12:15 AM 44.6 °F 39.2 °F 44.6 °F 100% 30.14 in 4.0 mi NW 10.4 mph - N/A   Light Drizzle
12:35 AM 44.6 °F 42.2 °F 42.8 °F 93% 30.14 in 4.0 mi NW 4.6 mph - N/A Rain , Thunderstorm Light Thunderstorms and Rain
12:55 AM 44.6 °F 39.7 °F 42.8 °F 93% 30.13 in 3.0 mi NNW 9.2 mph - N/A Rain , Thunderstorm Light Thunderstorms and Rain
1:15 AM 44.6 °F 39.7 °F 44.6 °F 100% 30.13 in 3.0 mi NNW 9.2 mph - 0.02 in Rain , Thunderstorm Light Thunderstorms and Rain
1:35 AM 42.8 °F 37.5 °F 42.8 °F 100% 30.14 in 2.5 mi NNW 9.2 mph - 0.02 in Rain , Thunderstorm Light Thunderstorms and Rain
1:55 AM 42.8 °F 37.5 °F 42.8 °F 100% 30.13 in 2.0 mi NNW 9.2 mph - 0.02 in   Overcast
2:35 AM 42.8 °F 38.6 °F 42.8 °F 100% 30.13 in 3.0 mi NNW 6.9 mph - N/A   Light Drizzle
2:55 AM 42.8 °F 38.0 °F 42.8 °F 100% 30.14 in 3.0 mi NNW 8.1 mph - N/A   Overcast
3:15 AM 42.8 °F 38.0 °F 42.8 °F 100% 30.13 in 2.5 mi NNW 8.1 mph - N/A   Overcast
3:35 AM 42.8 °F 38.6 °F 42.8 °F 100% 30.14 in 2.5 mi NNW 6.9 mph - N/A   Overcast
3:55 AM 42.8 °F 37.5 °F 42.8 °F 100% 30.15 in 3.0 mi NNW 9.2 mph - N/A   Overcast
4:15 AM 42.8 °F 37.5 °F 42.8 °F 100% 30.15 in 3.0 mi NNW 9.2 mph - N/A   Overcast
4:35 AM 42.8 °F 37.0 °F 42.8 °F 100% 30.14 in 3.0 mi North 10.4 mph - N/A Rain Light Rain
4:55 AM 42.8 °F 37.5 °F 42.8 °F 100% 30.15 in 3.0 mi NNW 9.2 mph - N/A   Overcast
5:15 AM 42.8 °F 37.5 °F 42.8 °F 100% 30.15 in 3.0 mi NNW 9.2 mph - N/A   Overcast
5:35 AM 42.8 °F 38.0 °F 42.8 °F 100% 30.15 in 3.0 mi NW 8.1 mph - N/A   Overcast
5:55 AM 42.8 °F 38.6 °F 42.8 °F 100% 30.16 in 4.0 mi NNW 6.9 mph - N/A   Overcast
6:15 AM 42.8 °F 38.0 °F 42.8 °F 100% 30.16 in 4.0 mi NNW 8.1 mph - N/A   Overcast
6:35 AM 42.8 °F 38.6 °F 42.8 °F 100% 30.16 in 3.0 mi North 6.9 mph - N/A   Overcast
6:55 AM 42.8 °F 38.6 °F 42.8 °F 100% 30.17 in 2.5 mi NNW 6.9 mph - N/A   Overcast
7:15 AM 42.8 °F 37.0 °F 42.8 °F 100% 30.17 in 3.0 mi NNW 10.4 mph - N/A   Overcast
7:35 AM 42.8 °F 37.5 °F 42.8 °F 100% 30.18 in 2.5 mi NW 9.2 mph - N/A   Overcast
7:55 AM 42.8 °F 37.5 °F 42.8 °F 100% 30.19 in 2.0 mi NNW 9.2 mph - N/A   Overcast
8:35 AM 42.8 °F 38.0 °F 42.8 °F 100% 30.20 in 3.0 mi NNW 8.1 mph - N/A   Overcast
8:55 AM 42.8 °F 37.0 °F 42.8 °F 100% 30.20 in 3.0 mi NW 10.4 mph - N/A   Overcast
9:35 AM 42.8 °F 36.6 °F 42.8 °F 100% 30.18 in 2.5 mi NW 11.5 mph - N/A   Overcast
9:55 AM 42.8 °F 37.0 °F 42.8 °F 100% 30.18 in 2.5 mi North 10.4 mph - N/A   Overcast
10:15 AM 44.6 °F 40.7 °F 42.8 °F 93% 30.19 in 3.0 mi NNE 6.9 mph - N/A   Overcast
10:35 AM 44.6 °F 39.7 °F 42.8 °F 93% 30.18 in 4.0 mi NNE 9.2 mph - N/A   Overcast
10:55 AM 44.6 °F 41.4 °F 42.8 °F 93% 30.17 in 4.0 mi NNE 5.8 mph - N/A   Overcast
11:15 AM 44.6 °F 41.4 °F 44.6 °F 100% 30.15 in 4.0 mi ENE 5.8 mph - N/A   Overcast
11:35 AM 46.4 °F 42.4 °F 44.6 °F 93% 30.13 in 4.0 mi NE 8.1 mph - N/A   Overcast
12:15 PM 48.2 °F - 46.4 °F 93% 30.09 in 4.0 mi NE 6.9 mph - N/A   Overcast
12:35 PM 50.0 °F - 46.4 °F 87% 30.08 in 5.0 mi East 4.6 mph - N/A   Overcast
12:55 PM 50.0 °F - 46.4 °F 87% 30.07 in 5.0 mi ENE 3.5 mph - N/A   Overcast
1:15 PM 50.0 °F - 46.4 °F 87% 30.05 in 5.0 mi NE 4.6 mph - N/A   Overcast
1:35 PM 50.0 °F - 46.4 °F 87% 30.03 in 5.0 mi NNE 5.8 mph - N/A   Overcast
1:55 PM 50.0 °F - 48.2 °F 94% 30.01 in 5.0 mi NNE 6.9 mph - N/A   Overcast
2:15 PM 50.0 °F - 48.2 °F 94% 30.00 in 5.0 mi NE 5.8 mph - N/A Thunderstorm Overcast
2:35 PM 50.0 °F - 48.2 °F 94% 29.98 in 5.0 mi NNE 8.1 mph - N/A   Overcast
2:55 PM 50.0 °F - 48.2 °F 94% 29.97 in 2.0 mi ENE 8.1 mph - 0.04 in Rain , Thunderstorm Light Thunderstorms and Rain
3:35 PM 50.0 °F - 48.2 °F 94% 29.94 in 2.0 mi NE 11.5 mph - 0.05 in Rain , Thunderstorm Heavy Thunderstorms and Rain
3:55 PM 48.2 °F - 48.2 °F 100% 29.98 in 2.0 mi North 9.2 mph - 0.23 in Rain , Thunderstorm Thunderstorms and Rain
4:15 PM 46.4 °F 41.9 °F 46.4 °F 100% 30.00 in 1.2 mi NNW 9.2 mph 17.3 mph 0.22 in Rain , Thunderstorm Heavy Thunderstorms and Rain